Regional Weather Roundup
Issued by NWS

Home | Current Version | Previous Version | Graphics & Text | Print | Product List | Glossary On
Versions: 1 2 3 4 5 6 7 8 9 10 11 12 13 14 15 16 17 18 19 20 21 22 23 24 25 26 27 28 29 30 31 32 33 34 35 36 37 38 39 40 41 42 43 44 45 46 47 48 49 50
000
ASUS43 KLOT 221900
RWRIL

ILLINOIS REGIONAL WEATHER ROUNDUP
NATIONAL WEATHER SERVICE CHICAGO/ROMEOVILLE IL
200 PM CDT FRI AUG 22 2014

NOTE: "FAIR" INDICATES FEW OR NO CLOUDS BELOW 12,000 FEET WITH NO
SIGNIFICANT WEATHER AND/OR OBSTRUCTIONS TO VISIBILITY.

* THESE STATIONS ARE NOT UNDER NWS QUALITY CONTROL. THEY ALSO MAY NOT
  REPORT WEATHER SUCH AS PRECIPITATION OR FOG.

ILZ001-002-007-009-015-016-024-222000-
NORTHWEST ILLINOIS

CITY           SKY/WX    TMP DP  RH WIND       PRES   REMARKS
MOLINE         PTSUNNY   85  75  72 SW13G21   29.93F HX  93
STERLING*      CLOUDY    82  73  74 W14       29.95S HX  88
$$

ILZ003-004-008-010-011-017-018-222000-
NORTH CENTRAL ILLINOIS

CITY           SKY/WX    TMP DP  RH WIND       PRES   REMARKS
ROCKFORD       CLOUDY    82  73  74 W8        29.95F HX  87
$$

ILZ005-006-012>014-019>023-222000-
NORTHEAST ILLINOIS

CITY           SKY/WX    TMP DP  RH WIND       PRES   REMARKS
CHICAGO-OHARE  PTSUNNY   84  68  58 SW7       29.93F HX  87
CHICAGO-MIDWAY CLOUDY    86  72  62 SW9       29.93F HX  92
AURORA         CLOUDY    81  70  69 W10       29.95S HX  84
WAUKEGAN       PTSUNNY   78  73  84 E7        29.93F HX  81
DUPAGE AIRPORT CLOUDY    84  70  62 W8        29.94F HX  88
WHEELING       PTSUNNY   85  73  67 CALM      29.93F HX  91
NORTHERLY ISL    N/A     83  69  62 NW6         N/A  HX  86
$$

LMZ740>746-222000-
SOUTHERN LAKE MICHIGAN

STATION/POSITION SKY/WX   TEMP    WIND        PRES    VSBY  WAVE
                          AIR SEA DIR/SP/G                  HT/PER
                          (F)     (DEG/KT/KT) (MB)    (MI)  (FT/S)
SOUTHERN BUOY              71 71  170/  2/  4 1014.7R         0
WAUKEGAN HARBOR            74      40/  5/  6   N/A
HARRISON CRIB              79     300/  4/  5   N/A
BURNHAM HARBOR             83     290/  5/ 11   N/A
CALUMET HARBOR             82     290/  4/  6 1012.6F
MICHIGAN CITY              76     220/  6/  7   N/A
MICHIGAN CITY 6N           75 72  120/  4/  4   N/A           0
ST. JOSEPH                 74 72  170/  2/  2   N/A           0
$$

ILZ025>027-034>036-040-047-049-050-058-095>099-222000-
WEST-CENTRAL ILLINOIS

CITY           SKY/WX    TMP DP  RH WIND       PRES   REMARKS
QUINCY         MOSUNNY   87  73  62 S3        29.97F HX  94
MACOMB*        PTSUNNY   83  76  81 S9        29.98F HX  91
$$

ILZ028>032-037-038-041>044-048-051>054-059>061-222000-
CENTRAL ILLINOIS

CITY           SKY/WX    TMP DP  RH WIND       PRES   REMARKS
DECATUR        CLOUDY    83  75  77 SW9       29.97F HX  90
PEORIA         CLOUDY    83  74  74 SW16      29.93F HX  89
SPRINGFIELD    CLOUDY    86  75  69 S7        29.97F HX  95
TAYLORVILLE    NOT AVBL
$$

ILZ033-039-045-046-055>057-062-063-222000-
EAST-CENTRAL ILLINOIS

CITY           SKY/WX    TMP DP  RH WIND       PRES   REMARKS
CHAMPAIGN      LGT RAIN  82  73  74 S3        29.98R HX  87
MATTOON        CLOUDY    82  74  76 S12       29.96F HX  88
$$

ILZ079-100>102-222000-
SOUTHWEST ILLINOIS

CITY           SKY/WX    TMP DP  RH WIND       PRES   REMARKS
BELLEVILLE     CLOUDY    88  78  72 E8        29.98F HX 102
CAHOKIA*       CLOUDY    91  76  61 SE10      29.97F HX 103
$$

ILZ064>066-069>071-074>076-080>082-084>086-088>090-092>094-222000-
SOUTH-CENTRAL ILLINOIS

CITY           SKY/WX    TMP DP  RH WIND       PRES   REMARKS
CARBONDALE     PTSUNNY   89  75  63 W5        30.01F HX  99
MARION         PTSUNNY   90  75  62 W6        30.02F HX 100
MT. VERNON     CLOUDY    88  73  62 S5        30.01F HX  96
SALEM*         CLOUDY    86  77  74 SW6       30.00F HX  97
$$

ILZ067-068-072-073-078-083-087-091-222000-
SOUTHEAST ILLINOIS

CITY           SKY/WX    TMP DP  RH WIND       PRES   REMARKS
LAWRENCEVILLE  CLOUDY    85  76  74 SW9       29.98F HX  94
HARRISBURG*    PTSUNNY   89  74  61 SW5       30.02F HX  98
ROBINSON*      CLOUDY    85  78  79 SW10      29.98F HX  97
$$

ABBREVIATIONS USED IN REMARKS
   TC - TEMPERATURE IN CELSIUS
  WCI - WIND CHILL INDEX
   HX - HEAT INDEX
  VSB - VISIBILITY
$$




USA.gov is the U.S. government's official web portal to all federal, state and local government web resources and services.